Location: Newark
(43.2333°N, 2.8603°E)
Time: 06:49:07
(UTC+00:00)

Envisat - Visible Passes

Search period start: 14 November 2019 00:00
Search period end: 24 November 2019 00:00
Orbit: 764 x 766 km, 98.1° (Epoch: 13 November)

Date Brightness Start Highest point End Pass type
(mag) Time Alt. Az. Time Alt. Az. Time Alt. Az.
14 Nov 5.6 05:48:11 10° NE 05:52:21 25° E 05:56:29 10° SSE visible
14 Nov 3.5 17:03:35 10° SE 17:08:12 36° ENE 17:12:49 10° N visible
14 Nov 5.0 18:42:55 10° SSW 18:47:15 28° W 18:51:37 10° NW visible
15 Nov 6.4 05:13:46 10° ENE 05:15:10 11° E 05:16:34 10° ESE visible
15 Nov 3.5 18:05:18 10° S 18:10:18 61° W 18:15:22 10° NNW visible
16 Nov 3.0 17:28:34 10° SSE 17:33:33 62° ENE 17:38:35 10° N visible
16 Nov 5.8 19:09:52 10° SW 19:13:00 16° W 19:16:09 10° NW visible
17 Nov 5.9 05:37:18 10° NE 05:40:59 20° E 05:44:39 10° SE visible
17 Nov 3.8 16:52:39 10° SE 16:57:00 29° ENE 17:01:22 10° N visible
17 Nov 4.6 18:31:17 10° SSW 18:35:55 35° W 18:40:34 10° NNW visible
18 Nov 3.1 17:53:57 10° S 17:59:01 77° WSW 18:04:08 10° NNW visible
19 Nov 5.0 06:02:04 10° NNE 06:06:41 34° E 06:11:16 10° SSE visible
19 Nov 3.2 17:17:27 10° SE 17:22:19 49° ENE 17:27:13 10° N visible
19 Nov 5.5 18:57:52 10° SW 19:01:37 21° W 19:05:23 10° NW visible
20 Nov 6.0 05:26:34 10° NE 05:29:36 16° E 05:32:36 10° SE visible
20 Nov 4.1 18:19:45 10° S 18:24:34 44° W 18:29:27 10° NNW visible
21 Nov 2.9 17:42:40 10° SSE 17:47:45 85° ENE 17:52:51 10° NNW visible
21 Nov 6.2 19:25:43 10° WSW 19:27:25 12° W 19:29:07 10° WNW visible
22 Nov 5.4 05:51:02 10° NE 05:55:20 27° E 05:59:37 10° SSE visible
22 Nov 3.4 17:06:25 10° SE 17:11:06 39° ENE 17:15:50 10° N visible
22 Nov 5.1 18:46:03 10° SSW 18:50:14 26° W 18:54:28 10° NW visible
23 Nov 6.2 05:16:08 10° ENE 05:18:10 12° E 05:20:12 10° ESE visible
23 Nov 3.7 18:08:17 10° S 18:13:16 56° W 18:18:17 10° NNW visible
